Location: Newark
(30.1000°N, 109.4667°E)
Time: 15:02:13
(UTC+00:00)

SR - Pass Details

Date: 25 February 2020
Orbit: 578 x 878 km, 66.7° (Epoch: 31 March)

Event Time Altitude Azimuth Distance (km) Brightness Sun altitude
Rises 17:27:33 0° 322° (NW) 3,148 - -67.7°
Reaches altitude 10° 17:30:16 10° 311° (NW) 2,168 - -67.5°
Maximum altitude 17:34:23 28° 253° (WSW) 1,252 - -67.1°
Drops below altitude 10° 17:38:14 10° 195° (SSW) 2,006 - -66.7°
Sets 17:40:40 0° 183° (S) 2,868 - -66.5°
